User: anonymous   Login
Location: Coleman
(45.0650°N, 88.0340°W)
Time: 21:56:22
(UTC-06:00)
Language:

Iridium 97 - Orbit

View from above orbital plane
View from above orbital plane
View from above satellite
View from above satellite

Ground track
Ground track

The orbit data is extracted from the following two-line orbital elements,

1 27450U 02031A   16037.45938689  .00000212  00000-0  68742-4 0  9999
2 27450  86.4004 166.5455 0002224  93.2409 266.9041 14.34218652719035
Epoch (UTC): 06 February 2016 11:01:31
Eccentricity: 0.0002224
inclination: 86.4004°
perigee height: 776 km
apogee height: 779 km
right ascension of ascending node: 166.5455°
argument of perigee: 93.2409°
revolutions per day: 14.34218652
mean anomaly at epoch: 266.9041°
orbit number at epoch: 71903

The dashed part of the orbit path shows where the satellite is in the earth's shadow,  

DLR